This is the latest recevied weather packets stored in our database for station/object DO2HBA-6. If no packets are shown the sender has not sent any weather packets the latest 1 day(s).
| Time | Temp. | Humidity | Pressure | Rain* | Wind** | Luminosity | Snow |
|---|---|---|---|---|---|---|---|
| 1778100086 | 14.44° C | 10% | 1009.1 hPa | 0 mm | - | - | - |
| 1778099786 | 14.44° C | 10% | 1009.2 hPa | 0 mm | - | - | - |
| 1778098885 | 13.89° C | 10% | 1009 hPa | 0 mm | - | - | - |
| 1778097984 | 14.44° C | 10% | 1008.9 hPa | 0 mm | - | - | - |
| 1778097083 | 13.89° C | 10% | 1007.7 hPa | 0 mm | - | - | - |
| 1778096783 | 13.89° C | 10% | 1007.6 hPa | 0 mm | - | - | - |
| 1778094681 | 13.33° C | 10% | 1007.1 hPa | 0 mm | - | - | - |
| 1778094080 | 13.33° C | 10% | 1007.1 hPa | 0 mm | - | - | - |
| 1778093780 | 13.33° C | 10% | 1007 hPa | 0 mm | - | - | - |
| 1778090176 | 15.56° C | 10% | 1006.6 hPa | 0 mm | - | - | - |
| 1778088676 | 18.89° C | 10% | 1006.2 hPa | 0 mm | - | - | - |
| 1778087774 | 20° C | 13% | 1004.5 hPa | 0 mm | - | - | - |
| 1778085972 | 21.67° C | 29% | 1003.4 hPa | 0 mm | - | - | - |
| 1778085672 | 22.78° C | 32% | 1003.4 hPa | 0 mm | - | - | - |
| 1778085071 | 23.33° C | 33% | 1003.6 hPa | 0 mm | - | - | - |
| 1778083870 | 23.89° C | 32% | 1003.8 hPa | 0 mm | - | - | - |
| 1778082669 | 24.44° C | 32% | 1004 hPa | 0 mm | - | - | - |
| 1778082068 | 25° C | 32% | 1004.3 hPa | 0 mm | - | - | - |
| 1778081768 | 25.56° C | 32% | 1004.2 hPa | 0 mm | - | - | - |
| 1778080567 | 26.11° C | 32% | 1004.4 hPa | 0 mm | - | - | - |
| 1778079666 | 26.11° C | 32% | 1004.6 hPa | 0 mm | - | - | - |
| 1778078765 | 26.11° C | 31% | 1004.8 hPa | 0 mm | - | - | - |
| 1778077564 | 26.67° C | 30% | 1004.9 hPa | 0 mm | - | - | - |
| 1778076663 | 26.67° C | 31% | 1005 hPa | 0 mm | - | - | - |
| 1778075762 | 26.67° C | 31% | 1005.2 hPa | 0 mm | - | - | - |
* Rain latest hour (hover to see other rain measurements)
** Current wind speed in m/s (hover to see current wind gust speed)